TimeMST,TemperatureF,Dew PointF,Humidity,Sea Level PressureIn,VisibilityMPH,Wind Direction,Wind SpeedMPH,Gust SpeedMPH,PrecipitationIn,Events,Conditions,WindDirDegrees,DateUTC
12:54 AM,45.0,37.0,74,29.87,10.0,Calm,Calm,-,N/A,,Overcast,0,2013-01-27 07:54:00
1:54 AM,46.0,37.0,71,29.86,10.0,SW,10.4,-,N/A,,Overcast,220,2013-01-27 08:54:00
2:54 AM,45.0,36.0,71,29.86,10.0,SSW,9.2,-,N/A,,Overcast,210,2013-01-27 09:54:00
3:54 AM,45.0,36.0,71,29.85,10.0,WSW,9.2,-,N/A,,Overcast,240,2013-01-27 10:54:00
4:54 AM,42.1,36.0,79,29.86,10.0,WSW,6.9,-,N/A,,Mostly Cloudy,240,2013-01-27 11:54:00
5:54 AM,39.9,35.1,83,29.89,10.0,WSW,3.5,-,N/A,,Mostly Cloudy,250,2013-01-27 12:54:00
6:54 AM,37.9,35.1,89,29.91,10.0,SSE,3.5,-,N/A,,Mostly Cloudy,150,2013-01-27 13:54:00
7:54 AM,37.0,35.1,93,29.94,10.0,South,4.6,-,N/A,,Scattered Clouds,190,2013-01-27 14:54:00
8:54 AM,44.1,37.9,79,29.91,10.0,South,5.8,-,N/A,,Scattered Clouds,190,2013-01-27 15:54:00
9:54 AM,48.0,37.9,68,29.91,10.0,SW,11.5,-,N/A,,Partly Cloudy,220,2013-01-27 16:54:00
10:54 AM,52.0,37.9,59,29.89,10.0,WSW,15.0,-,N/A,,Clear,240,2013-01-27 17:54:00
11:54 AM,52.0,37.0,57,29.87,10.0,WSW,16.1,-,0.00,,Overcast,250,2013-01-27 18:54:00
12:54 PM,54.0,36.0,51,29.83,10.0,WSW,21.9,29.9,N/A,,Mostly Cloudy,240,2013-01-27 19:54:00
1:54 PM,55.0,34.0,45,29.81,10.0,SW,21.9,31.1,N/A,,Partly Cloudy,230,2013-01-27 20:54:00
2:54 PM,53.1,33.1,47,29.82,10.0,SW,15.0,24.2,N/A,,Scattered Clouds,220,2013-01-27 21:54:00
3:54 PM,53.1,32.0,45,29.81,10.0,SSW,16.1,27.6,N/A,,Partly Cloudy,210,2013-01-27 22:54:00
4:54 PM,51.1,32.0,48,29.83,10.0,SW,19.6,23.0,N/A,,Partly Cloudy,220,2013-01-27 23:54:00
5:54 PM,46.0,35.1,66,29.87,10.0,SW,6.9,-,N/A,,Clear,230,2013-01-28 00:54:00
6:54 PM,45.0,35.1,68,29.88,10.0,South,8.1,-,N/A,,Clear,190,2013-01-28 01:54:00
7:54 PM,43.0,34.0,71,29.88,10.0,Calm,Calm,-,N/A,,Clear,0,2013-01-28 02:54:00
8:54 PM,44.1,37.9,79,29.85,10.0,SSW,6.9,-,0.00,Rain,Light Rain,210,2013-01-28 03:54:00
9:54 PM,42.1,37.0,82,29.82,10.0,SW,3.5,-,0.00,Rain,Light Rain,230,2013-01-28 04:54:00
10:54 PM,42.1,37.0,82,29.80,10.0,East,4.6,-,0.00,,Mostly Cloudy,80,2013-01-28 05:54:00
11:54 PM,42.1,37.0,82,29.79,10.0,WSW,9.2,-,0.01,,Overcast,250,2013-01-28 06:54:00